Sheboygan, WI

9:07 PM CST on November 23, 2017 (GMT -0600)
Sheboygan County Memorial

Weather History for KSBM - November, 2012

Change the Weather History Date:

Monday, November 5, 2012

  Actual Average Record
Temperature  
Mean Temperature 34 °F -  
Max Temperature 43 °F 49 °F 73 °F (1975)
Min Temperature 26 °F 34 °F 7 °F (1951)
Degree Days  
Heating Degree Days 30    
Moisture  
Dew Point 29 °F    
Average Humidity 70    
Maximum Humidity 86    
Minimum Humidity 56    
Precipitation  
Precipitation 0.00 in - - ()
Sea Level Pressure  
Sea Level Pressure 30.21 in    
Wind  
Wind Speed 5 mph (North)    
Max Wind Speed 12 mph    
Max Gust Speed -    
Visibility 10 miles    
Events Snow    
Averages and records for this station are not official NWS values.
T = Trace of Precipitation, MM = Missing Value Source: NWS Daily Summary

Daily Weather History Graph

Daily Weather History Graph

Search for Another Location

Airport or City:

Trip Planner

Search our weather history database for the weather conditions in past years. The results will help you decide how hot, cold, wet, or windy it might be!

Date:

Astronomy

Nov. 05, 2012 Rise Set
Actual Time 6:33 AM CST 4:36 PM CST
Civil Twilight 6:03 AM CST 5:06 PM CST
Nautical Twilight 5:28 AM CST 5:40 PM CST
Astronomical Twilight 4:55 AM CST 6:14 PM CST
Moon 10:13 PM CST (11/5) 11:52 AM CST (11/5)
Length of Visible Light 11h 03m
Length of Day
10h 02m
Waning Gibbous, 62% of the Moon is Illuminated
Nov 5
Waning Gibbous
Nov 6
Last Quarter
Nov 13
New
Nov 20
First Quarter
Nov 28
Full

Hourly Weather History & Observations

Time (CST) Temp. Windchill Dew Point Humidity Pressure Visibility Wind Dir Wind Speed Gust Speed Precip Events Conditions
12:14 AM 26.6 °F 22.6 °F 21.2 °F 80% 30.22 in 10.0 mi West 3.5 mph - N/A   Mostly Cloudy
12:37 AM 28.4 °F - 24.8 °F 86% 30.22 in 10.0 mi Calm Calm - N/A   Overcast
12:53 AM 30.9 °F 27.5 °F 26.1 °F 82% 30.24 in 10.0 mi West 3.5 mph - N/A   Overcast
1:53 AM 32.0 °F 28.7 °F 28.0 °F 85% 30.24 in 10.0 mi NW 3.5 mph - N/A   Overcast
2:53 AM 34.0 °F 28.8 °F 28.0 °F 79% 30.23 in 10.0 mi North 5.8 mph - N/A   Overcast
3:12 AM 35.6 °F 31.7 °F 28.4 °F 75% 30.21 in 6.0 mi North 4.6 mph - 0.00 in Snow Light Snow
3:53 AM 35.1 °F 30.1 °F 28.9 °F 78% 30.24 in 10.0 mi NNW 5.8 mph - 0.00 in   Overcast
4:00 AM 35.6 °F 30.7 °F 30.2 °F 81% 30.22 in 10.0 mi NNW 5.8 mph - N/A   Overcast
4:53 AM 35.1 °F 29.3 °F 30.0 °F 82% 30.24 in 10.0 mi NNW 6.9 mph - N/A   Overcast
5:53 AM 35.1 °F 30.1 °F 28.9 °F 78% 30.24 in 10.0 mi North 5.8 mph - N/A   Overcast
6:53 AM 34.0 °F 28.0 °F 27.0 °F 75% 30.25 in 10.0 mi North 6.9 mph - N/A   Mostly Cloudy
7:53 AM 36.0 °F 30.3 °F 28.9 °F 76% 30.25 in 10.0 mi North 6.9 mph - N/A   Mostly Cloudy
8:53 AM 41.0 °F 34.7 °F 30.9 °F 67% 30.25 in 10.0 mi NNE 10.4 mph - N/A   Overcast
9:25 AM 41.0 °F 35.2 °F 30.2 °F 65% 30.23 in 10.0 mi NNE 9.2 mph - N/A   Overcast
9:43 AM 42.8 °F 36.6 °F 30.2 °F 61% 30.23 in 10.0 mi NNE 11.5 mph - N/A   Scattered Clouds
9:53 AM 42.1 °F 35.7 °F 30.9 °F 65% 30.26 in 10.0 mi NNE 11.5 mph - N/A   Mostly Cloudy
10:48 AM 42.8 °F 37.5 °F 30.2 °F 61% 30.23 in 10.0 mi NE 9.2 mph - N/A   Mostly Cloudy
10:53 AM 43.0 °F 36.8 °F 32.0 °F 65% 30.26 in 10.0 mi NE 11.5 mph - N/A   Mostly Cloudy
11:29 AM 42.8 °F 37.0 °F 30.2 °F 61% 30.22 in 10.0 mi East 10.4 mph - N/A   Overcast
11:53 AM 42.1 °F 37.1 °F 30.0 °F 62% 30.24 in 10.0 mi NE 8.1 mph - N/A   Overcast
12:41 PM 42.8 °F 39.3 °F 32.0 °F 66% 30.20 in 10.0 mi Variable 5.8 mph - N/A   Mostly Cloudy
12:53 PM 43.0 °F 39.5 °F 30.0 °F 60% 30.22 in 10.0 mi NE 5.8 mph - N/A   Mostly Cloudy
1:53 PM 43.0 °F - 28.0 °F 56% 30.20 in 10.0 mi Calm Calm - N/A   Overcast
2:53 PM 43.0 °F 38.8 °F 28.0 °F 56% 30.19 in 10.0 mi East 6.9 mph - N/A   Overcast
3:53 PM 42.1 °F 40.2 °F 28.0 °F 58% 30.19 in 10.0 mi East 3.5 mph - N/A   Overcast
4:53 PM 41.0 °F - 28.0 °F 60% 30.19 in 10.0 mi Calm Calm - N/A   Overcast
5:53 PM 39.9 °F - 28.0 °F 63% 30.19 in 10.0 mi Calm Calm - N/A   Overcast
6:53 PM 39.0 °F - 27.0 °F 62% 30.19 in 10.0 mi Calm Calm - N/A   Overcast
7:53 PM 37.9 °F - 27.0 °F 65% 30.18 in 10.0 mi Calm Calm - N/A   Overcast
8:53 PM 37.9 °F - 28.9 °F 70% 30.17 in 10.0 mi Calm Calm - N/A   Overcast
9:10 PM 37.4 °F - 28.4 °F 70% 30.14 in 10.0 mi Calm Calm - N/A   Overcast
9:53 PM 37.9 °F 35.5 °F 28.9 °F 70% 30.16 in 10.0 mi NW 3.5 mph - N/A   Overcast
10:53 PM 37.9 °F - 28.9 °F 70% 30.14 in 10.0 mi Calm Calm - N/A   Overcast
11:04 PM 37.4 °F - 28.4 °F 70% 30.11 in 10.0 mi Calm Calm - N/A   Overcast
11:53 PM 37.0 °F - 28.9 °F 73% 30.12 in 10.0 mi Calm Calm - N/A   Overcast